Location: R�o Tuerlos
(40.6704°N, 4.4622°W)
Time: 19:18:16
(UTC+00:00)

NOSS 2-1 (E) - Pass Details

Date: 07 June 2020
Orbit: 446 x 1757 km, 63.3° (Epoch: 25 June)

Event Time Altitude Azimuth Distance (km) Brightness Sun altitude
Exits shadow 02:05:20 74° 22° (NNE) 470 3.0 -21.7°
Drops below altitude 10° 02:08:34 10° 34° (NE) 1,638 6.9 -21.4°
Sets 02:10:48 0° 35° (NE) 2,604 8.3 -21.2°
